Time,TemperatureF,DewpointF,PressureIn,WindDirection,WindDirectionDegrees,WindSpeedMPH,WindSpeedGustMPH,Humidity,HourlyPrecipIn,Conditions,Clouds,dailyrainin,SoftwareType,DateUTC
2014-01-14 00:03:00,56.0,18.0,30.24,ESE,112,3.0,5.0,22,0.00,,,0.00,Rainwise IP-100,2014-01-14 08:03:00,
2014-01-14 00:08:00,56.0,18.0,30.24,ESE,112,4.0,5.0,22,0.00,,,0.00,Rainwise IP-100,2014-01-14 08:08:00,
2014-01-14 00:13:00,56.0,18.0,30.24,SE,135,1.0,5.0,22,0.00,,,0.00,Rainwise IP-100,2014-01-14 08:13:00,
2014-01-14 00:18:00,56.0,18.0,30.24,ESE,112,3.0,4.0,22,0.00,,,0.00,Rainwise IP-100,2014-01-14 08:18:00,
2014-01-14 00:23:00,56.0,18.0,30.24,SSE,157,0.0,5.0,22,0.00,,,0.00,Rainwise IP-100,2014-01-14 08:23:00,
2014-01-14 00:28:00,56.0,18.0,30.24,SSE,157,1.0,3.0,22,0.00,,,0.00,Rainwise IP-100,2014-01-14 08:28:00,
2014-01-14 00:33:00,55.0,18.0,30.24,ESE,112,0.0,4.0,23,0.00,,,0.00,Rainwise IP-100,2014-01-14 08:33:00,
2014-01-14 00:38:00,55.0,18.0,30.23,SSE,157,1.0,5.0,23,0.00,,,0.00,Rainwise IP-100,2014-01-14 08:38:00,
2014-01-14 00:43:00,55.0,18.0,30.24,SE,135,1.0,3.0,23,0.00,,,0.00,Rainwise IP-100,2014-01-14 08:43:00,
2014-01-14 00:48:00,55.0,18.0,30.23,SSE,157,1.0,6.0,22,0.00,,,0.00,Rainwise IP-100,2014-01-14 08:48:00,
2014-01-14 00:53:00,56.0,18.0,30.24,ENE,67,0.0,4.0,22,0.00,,,0.00,Rainwise IP-100,2014-01-14 08:53:00,
2014-01-14 00:58:00,56.0,18.0,30.24,SSE,157,2.0,4.0,22,0.00,,,0.00,Rainwise IP-100,2014-01-14 08:58:00,
2014-01-14 01:03:00,56.0,18.0,30.24,SSE,157,2.0,5.0,22,0.00,,,0.00,Rainwise IP-100,2014-01-14 09:03:00,
2014-01-14 01:08:00,56.0,18.0,30.24,SSE,157,4.0,5.0,22,0.00,,,0.00,Rainwise IP-100,2014-01-14 09:08:00,
2014-01-14 01:13:00,56.0,18.0,30.25,SE,135,4.0,6.0,22,0.00,,,0.00,Rainwise IP-100,2014-01-14 09:13:00,
2014-01-14 01:18:00,56.0,18.0,30.25,ESE,112,3.0,5.0,22,0.00,,,0.00,Rainwise IP-100,2014-01-14 09:18:00,
2014-01-14 01:23:00,57.0,18.0,30.25,SE,135,2.0,6.0,21,0.00,,,0.00,Rainwise IP-100,2014-01-14 09:23:00,
2014-01-14 01:28:00,57.0,18.0,30.25,SE,135,4.0,6.0,21,0.00,,,0.00,Rainwise IP-100,2014-01-14 09:28:00,
2014-01-14 01:33:00,57.0,18.0,30.24,SSE,157,2.0,4.0,21,0.00,,,0.00,Rainwise IP-100,2014-01-14 09:33:00,
2014-01-14 01:38:00,57.0,18.0,30.25,ESE,112,3.0,3.0,21,0.00,,,0.00,Rainwise IP-100,2014-01-14 09:38:00,
2014-01-14 01:43:00,57.0,18.0,30.25,ESE,112,4.0,5.0,21,0.00,,,0.00,Rainwise IP-100,2014-01-14 09:43:00,
2014-01-14 01:48:00,58.0,18.0,30.25,ESE,112,5.0,5.0,20,0.00,,,0.00,Rainwise IP-100,2014-01-14 09:48:00,
2014-01-14 01:53:00,58.0,18.0,30.24,SE,135,4.0,6.0,20,0.00,,,0.00,Rainwise IP-100,2014-01-14 09:53:00,
2014-01-14 01:58:00,58.0,18.0,30.25,SE,135,3.0,5.0,20,0.00,,,0.00,Rainwise IP-100,2014-01-14 09:58:00,
2014-01-14 02:03:00,58.0,18.0,30.25,East,90,1.0,4.0,20,0.00,,,0.00,Rainwise IP-100,2014-01-14 10:03:00,
2014-01-14 02:08:00,58.0,18.0,30.25,ESE,112,3.0,4.0,20,0.00,,,0.00,Rainwise IP-100,2014-01-14 10:08:00,
2014-01-14 02:13:00,58.0,18.0,30.25,SE,135,2.0,4.0,20,0.00,,,0.00,Rainwise IP-100,2014-01-14 10:13:00,
2014-01-14 02:18:00,58.0,16.0,30.25,SSE,157,2.0,2.0,19,0.00,,,0.00,Rainwise IP-100,2014-01-14 10:18:00,
2014-01-14 02:23:00,58.0,16.0,30.25,SSE,157,0.0,3.0,19,0.00,,,0.00,Rainwise IP-100,2014-01-14 10:23:00,
2014-01-14 02:28:00,58.0,16.0,30.25,SSE,157,2.0,2.0,19,0.00,,,0.00,Rainwise IP-100,2014-01-14 10:28:00,
2014-01-14 02:33:00,58.0,18.0,30.25,SE,135,0.0,2.0,20,0.00,,,0.00,Rainwise IP-100,2014-01-14 10:33:00,
2014-01-14 02:38:00,57.0,18.0,30.25,SE,135,0.0,3.0,21,0.00,,,0.00,Rainwise IP-100,2014-01-14 10:38:00,
2014-01-14 02:43:00,57.0,18.0,30.25,SSE,157,0.0,2.0,21,0.00,,,0.00,Rainwise IP-100,2014-01-14 10:43:00,
2014-01-14 02:48:00,56.0,16.0,30.25,SE,135,2.0,5.0,21,0.00,,,0.00,Rainwise IP-100,2014-01-14 10:48:00,
2014-01-14 02:53:00,56.0,16.0,30.25,SE,135,4.0,4.0,21,0.00,,,0.00,Rainwise IP-100,2014-01-14 10:53:00,
2014-01-14 02:58:00,56.0,16.0,30.25,ESE,112,3.0,5.0,20,0.00,,,0.00,Rainwise IP-100,2014-01-14 10:58:00,
2014-01-14 03:03:00,57.0,16.0,30.25,SE,135,2.0,4.0,19,0.00,,,0.00,Rainwise IP-100,2014-01-14 11:03:00,
2014-01-14 03:08:00,58.0,16.0,30.25,ESE,112,3.0,4.0,19,0.00,,,0.00,Rainwise IP-100,2014-01-14 11:08:00,
2014-01-14 03:13:00,58.0,16.0,30.26,SSE,157,3.0,4.0,19,0.00,,,0.00,Rainwise IP-100,2014-01-14 11:13:00,
2014-01-14 03:18:00,58.0,16.0,30.26,SSE,157,1.0,3.0,19,0.00,,,0.00,Rainwise IP-100,2014-01-14 11:18:00,
2014-01-14 03:23:00,58.0,16.0,30.25,SE,135,1.0,5.0,19,0.00,,,0.00,Rainwise IP-100,2014-01-14 11:23:00,
2014-01-14 03:28:00,58.0,16.0,30.26,SSE,157,0.0,3.0,19,0.00,,,0.00,Rainwise IP-100,2014-01-14 11:28:00,
2014-01-14 03:33:00,58.0,16.0,30.26,ENE,67,0.0,3.0,19,0.00,,,0.00,Rainwise IP-100,2014-01-14 11:33:00,
2014-01-14 03:38:00,58.0,18.0,30.25,SSE,157,0.0,2.0,20,0.00,,,0.00,Rainwise IP-100,2014-01-14 11:38:00,
2014-01-14 03:43:00,57.0,16.0,30.25,NE,45,0.0,3.0,20,0.00,,,0.00,Rainwise IP-100,2014-01-14 11:43:00,
2014-01-14 03:48:00,57.0,16.0,30.26,SE,135,3.0,3.0,19,0.00,,,0.00,Rainwise IP-100,2014-01-14 11:48:00,
2014-01-14 03:53:00,57.0,16.0,30.25,SSE,157,1.0,4.0,19,0.00,,,0.00,Rainwise IP-100,2014-01-14 11:53:00,
2014-01-14 03:58:00,56.0,16.0,30.25,WNW,292,0.0,4.0,20,0.00,,,0.00,Rainwise IP-100,2014-01-14 11:58:00,
2014-01-14 04:03:00,57.0,16.0,30.26,ESE,112,0.0,4.0,20,0.00,,,0.00,Rainwise IP-100,2014-01-14 12:03:00,
2014-01-14 04:08:00,57.0,18.0,30.25,SSW,202,0.0,3.0,21,0.00,,,0.00,Rainwise IP-100,2014-01-14 12:08:00,
2014-01-14 04:13:00,56.0,16.0,30.26,SSE,157,2.0,3.0,21,0.00,,,0.00,Rainwise IP-100,2014-01-14 12:13:00,
2014-01-14 04:18:00,56.0,16.0,30.25,ENE,67,4.0,6.0,20,0.00,,,0.00,Rainwise IP-100,2014-01-14 12:18:00,
2014-01-14 04:23:00,56.0,16.0,30.25,WSW,247,0.0,5.0,21,0.00,,,0.00,Rainwise IP-100,2014-01-14 12:23:00,
2014-01-14 04:28:00,56.0,18.0,30.25,SSW,202,4.0,6.0,22,0.00,,,0.00,Rainwise IP-100,2014-01-14 12:28:00,
2014-01-14 04:33:00,56.0,16.0,30.25,SSW,202,0.0,5.0,21,0.00,,,0.00,Rainwise IP-100,2014-01-14 12:33:00,
2014-01-14 04:38:00,56.0,16.0,30.24,South,180,3.0,4.0,21,0.00,,,0.00,Rainwise IP-100,2014-01-14 12:38:00,
2014-01-14 04:43:00,56.0,16.0,30.25,ESE,112,0.0,6.0,20,0.00,,,0.00,Rainwise IP-100,2014-01-14 12:43:00,
2014-01-14 04:48:00,56.0,16.0,30.24,SSW,202,1.0,4.0,20,0.00,,,0.00,Rainwise IP-100,2014-01-14 12:48:00,
2014-01-14 04:53:00,56.0,16.0,30.24,SSE,157,6.0,6.0,21,0.00,,,0.00,Rainwise IP-100,2014-01-14 12:53:00,
2014-01-14 04:58:00,55.0,16.0,30.24,East,90,4.0,7.0,20,0.00,,,0.00,Rainwise IP-100,2014-01-14 12:58:00,
2014-01-14 05:03:00,56.0,16.0,30.25,NE,45,8.0,8.0,20,0.00,,,0.00,Rainwise IP-100,2014-01-14 13:03:00,
2014-01-14 05:08:00,58.0,16.0,30.25,SSE,157,3.0,13.0,19,0.00,,,0.00,Rainwise IP-100,2014-01-14 13:08:00,
2014-01-14 05:13:00,60.0,16.0,30.24,SSE,157,3.0,8.0,17,0.00,,,0.00,Rainwise IP-100,2014-01-14 13:13:00,
2014-01-14 05:18:00,60.0,16.0,30.25,ESE,112,3.0,8.0,17,0.00,,,0.00,Rainwise IP-100,2014-01-14 13:18:00,
2014-01-14 05:23:00,59.0,16.0,30.25,ENE,67,0.0,4.0,17,0.00,,,0.00,Rainwise IP-100,2014-01-14 13:23:00,
2014-01-14 05:28:00,58.0,16.0,30.25,SW,225,5.0,6.0,18,0.00,,,0.00,Rainwise IP-100,2014-01-14 13:28:00,
2014-01-14 05:33:00,58.0,16.0,30.25,SSE,157,1.0,7.0,18,0.00,,,0.00,Rainwise IP-100,2014-01-14 13:33:00,
2014-01-14 05:38:00,59.0,16.0,30.25,SW,225,6.0,6.0,18,0.00,,,0.00,Rainwise IP-100,2014-01-14 13:38:00,
2014-01-14 05:43:00,59.0,16.0,30.25,SSW,202,8.0,8.0,17,0.00,,,0.00,Rainwise IP-100,2014-01-14 13:43:00,
2014-01-14 05:48:00,60.0,16.0,30.25,SSW,202,3.0,9.0,17,0.00,,,0.00,Rainwise IP-100,2014-01-14 13:48:00,
2014-01-14 05:53:00,59.0,16.0,30.25,SSE,157,0.0,5.0,17,0.00,,,0.00,Rainwise IP-100,2014-01-14 13:53:00,
2014-01-14 05:58:00,58.0,16.0,30.26,SSE,157,0.0,3.0,19,0.00,,,0.00,Rainwise IP-100,2014-01-14 13:58:00,
2014-01-14 06:03:00,57.0,16.0,30.26,SSW,202,4.0,4.0,19,0.00,,,0.00,Rainwise IP-100,2014-01-14 14:03:00,
2014-01-14 06:08:00,56.0,16.0,30.25,WSW,247,1.0,8.0,19,0.00,,,0.00,Rainwise IP-100,2014-01-14 14:08:00,
2014-01-14 06:13:00,56.0,16.0,30.26,SSE,157,0.0,5.0,19,0.00,,,0.00,Rainwise IP-100,2014-01-14 14:13:00,
2014-01-14 06:18:00,57.0,16.0,30.26,SSW,202,3.0,8.0,19,0.00,,,0.00,Rainwise IP-100,2014-01-14 14:18:00,
2014-01-14 06:23:00,57.0,14.0,30.26,SW,225,5.0,6.0,18,0.00,,,0.00,Rainwise IP-100,2014-01-14 14:23:00,
2014-01-14 06:28:00,57.0,14.0,30.27,South,180,2.0,5.0,18,0.00,,,0.00,Rainwise IP-100,2014-01-14 14:28:00,
2014-01-14 06:33:00,57.0,14.0,30.26,SSW,202,4.0,5.0,18,0.00,,,0.00,Rainwise IP-100,2014-01-14 14:33:00,
2014-01-14 06:38:00,57.0,14.0,30.26,SSE,157,1.0,5.0,18,0.00,,,0.00,Rainwise IP-100,2014-01-14 14:38:00,
2014-01-14 06:43:00,57.0,14.0,30.26,SSW,202,4.0,5.0,18,0.00,,,0.00,Rainwise IP-100,2014-01-14 14:43:00,
2014-01-14 06:48:00,57.0,14.0,30.26,SW,225,0.0,8.0,18,0.00,,,0.00,Rainwise IP-100,2014-01-14 14:48:00,
2014-01-14 06:53:00,57.0,14.0,30.27,SSE,157,3.0,6.0,18,0.00,,,0.00,Rainwise IP-100,2014-01-14 14:53:00,
2014-01-14 06:58:00,56.0,16.0,30.27,SSE,157,1.0,4.0,19,0.00,,,0.00,Rainwise IP-100,2014-01-14 14:58:00,
2014-01-14 07:03:00,56.0,16.0,30.27,SE,135,9.0,9.0,20,0.00,,,0.00,Rainwise IP-100,2014-01-14 15:03:00,
2014-01-14 07:08:00,56.0,16.0,30.27,SSE,157,0.0,9.0,20,0.00,,,0.00,Rainwise IP-100,2014-01-14 15:08:00,
2014-01-14 07:13:00,56.0,16.0,30.27,SE,135,2.0,4.0,20,0.00,,,0.00,Rainwise IP-100,2014-01-14 15:13:00,
2014-01-14 07:18:00,56.0,16.0,30.27,SSE,157,2.0,3.0,20,0.00,,,0.00,Rainwise IP-100,2014-01-14 15:18:00,
2014-01-14 07:23:00,56.0,16.0,30.27,SSE,157,0.0,5.0,19,0.00,,,0.00,Rainwise IP-100,2014-01-14 15:23:00,
2014-01-14 07:28:00,56.0,16.0,30.27,SSE,157,0.0,3.0,19,0.00,,,0.00,Rainwise IP-100,2014-01-14 15:28:00,
2014-01-14 07:33:00,56.0,16.0,30.27,SSW,202,0.0,4.0,19,0.00,,,0.00,Rainwise IP-100,2014-01-14 15:33:00,
2014-01-14 07:38:00,56.0,16.0,30.27,SSE,157,1.0,3.0,19,0.00,,,0.00,Rainwise IP-100,2014-01-14 15:38:00,
2014-01-14 07:43:00,56.0,16.0,30.28,SSE,157,5.0,5.0,20,0.00,,,0.00,Rainwise IP-100,2014-01-14 15:43:00,
2014-01-14 07:48:00,56.0,16.0,30.28,SSE,157,1.0,5.0,20,0.00,,,0.00,Rainwise IP-100,2014-01-14 15:48:00,
2014-01-14 07:53:00,57.0,16.0,30.29,SSE,157,3.0,4.0,20,0.00,,,0.00,Rainwise IP-100,2014-01-14 15:53:00,
2014-01-14 07:58:00,57.0,16.0,30.28,SSE,157,0.0,3.0,20,0.00,,,0.00,Rainwise IP-100,2014-01-14 15:58:00,
2014-01-14 08:03:00,58.0,16.0,30.29,SSE,157,2.0,3.0,19,0.00,,,0.00,Rainwise IP-100,2014-01-14 16:03:00,
2014-01-14 08:08:00,59.0,16.0,30.29,SSW,202,0.0,3.0,18,0.00,,,0.00,Rainwise IP-100,2014-01-14 16:08:00,
2014-01-14 08:13:00,60.0,18.0,30.29,South,180,2.0,4.0,19,0.00,,,0.00,Rainwise IP-100,2014-01-14 16:13:00,
2014-01-14 08:18:00,60.0,18.0,30.29,SSW,202,0.0,3.0,19,0.00,,,0.00,Rainwise IP-100,2014-01-14 16:18:00,
2014-01-14 08:23:00,61.0,18.0,30.30,South,180,0.0,2.0,18,0.00,,,0.00,Rainwise IP-100,2014-01-14 16:23:00,
2014-01-14 08:28:00,61.0,18.0,30.30,SSE,157,0.0,4.0,18,0.00,,,0.00,Rainwise IP-100,2014-01-14 16:28:00,
2014-01-14 08:33:00,62.0,18.0,30.30,SW,225,2.0,4.0,18,0.00,,,0.00,Rainwise IP-100,2014-01-14 16:33:00,
2014-01-14 08:38:00,62.0,18.0,30.30,SW,225,0.0,5.0,18,0.00,,,0.00,Rainwise IP-100,2014-01-14 16:38:00,
2014-01-14 08:43:00,63.0,18.0,30.30,SSW,202,0.0,1.0,17,0.00,,,0.00,Rainwise IP-100,2014-01-14 16:43:00,
2014-01-14 08:48:00,63.0,18.0,30.30,SW,225,4.0,6.0,17,0.00,,,0.00,Rainwise IP-100,2014-01-14 16:48:00,
2014-01-14 08:53:00,63.0,18.0,30.30,WSW,247,4.0,9.0,17,0.00,,,0.00,Rainwise IP-100,2014-01-14 16:53:00,
2014-01-14 08:58:00,64.0,18.0,30.29,WSW,247,4.0,11.0,17,0.00,,,0.00,Rainwise IP-100,2014-01-14 16:58:00,
2014-01-14 09:03:00,64.0,18.0,30.30,WSW,247,4.0,9.0,17,0.00,,,0.00,Rainwise IP-100,2014-01-14 17:03:00,
2014-01-14 09:08:00,64.0,18.0,30.29,SSW,202,2.0,6.0,17,0.00,,,0.00,Rainwise IP-100,2014-01-14 17:08:00,
2014-01-14 09:13:00,64.0,18.0,30.29,WSW,247,2.0,10.0,17,0.00,,,0.00,Rainwise IP-100,2014-01-14 17:13:00,
2014-01-14 09:18:00,64.0,18.0,30.29,SW,225,6.0,7.0,17,0.00,,,0.00,Rainwise IP-100,2014-01-14 17:18:00,
2014-01-14 09:23:00,65.0,21.0,30.30,SSE,157,0.0,6.0,17,0.00,,,0.00,Rainwise IP-100,2014-01-14 17:23:00,
2014-01-14 09:28:00,65.0,21.0,30.29,SW,225,0.0,7.0,17,0.00,,,0.00,Rainwise IP-100,2014-01-14 17:28:00,
2014-01-14 09:33:00,66.0,18.0,30.29,SW,225,0.0,2.0,16,0.00,,,0.00,Rainwise IP-100,2014-01-14 17:33:00,
2014-01-14 09:38:00,67.0,21.0,30.29,SSE,157,0.0,3.0,16,0.00,,,0.00,Rainwise IP-100,2014-01-14 17:38:00,
2014-01-14 09:43:00,68.0,21.0,30.29,SE,135,3.0,3.0,16,0.00,,,0.00,Rainwise IP-100,2014-01-14 17:43:00,
2014-01-14 09:48:00,68.0,18.0,30.29,SE,135,2.0,4.0,15,0.00,,,0.00,Rainwise IP-100,2014-01-14 17:48:00,
2014-01-14 09:53:00,69.0,21.0,30.28,ESE,112,0.0,5.0,15,0.00,,,0.00,Rainwise IP-100,2014-01-14 17:53:00,
2014-01-14 09:58:00,69.0,21.0,30.29,SSE,157,0.0,4.0,15,0.00,,,0.00,Rainwise IP-100,2014-01-14 17:58:00,
2014-01-14 10:03:00,69.0,18.0,30.29,SW,225,5.0,5.0,14,0.00,,,0.00,Rainwise IP-100,2014-01-14 18:03:00,
2014-01-14 10:08:00,69.0,18.0,30.28,SSW,202,0.0,5.0,14,0.00,,,0.00,Rainwise IP-100,2014-01-14 18:08:00,
2014-01-14 10:13:00,69.0,18.0,30.29,WSW,247,4.0,5.0,14,0.00,,,0.00,Rainwise IP-100,2014-01-14 18:13:00,
2014-01-14 10:18:00,70.0,18.0,30.29,ESE,112,0.0,5.0,14,0.00,,,0.00,Rainwise IP-100,2014-01-14 18:18:00,
2014-01-14 10:23:00,70.0,18.0,30.28,WSW,247,5.0,6.0,14,0.00,,,0.00,Rainwise IP-100,2014-01-14 18:23:00,
2014-01-14 10:28:00,70.0,18.0,30.28,SSW,202,4.0,8.0,14,0.00,,,0.00,Rainwise IP-100,2014-01-14 18:28:00,
2014-01-14 10:33:00,70.0,18.0,30.28,SW,225,3.0,10.0,14,0.00,,,0.00,Rainwise IP-100,2014-01-14 18:33:00,
2014-01-14 10:38:00,71.0,21.0,30.28,SW,225,3.0,10.0,14,0.00,,,0.00,Rainwise IP-100,2014-01-14 18:38:00,
2014-01-14 10:43:00,71.0,21.0,30.28,WSW,247,2.0,9.0,14,0.00,,,0.00,Rainwise IP-100,2014-01-14 18:43:00,
2014-01-14 10:48:00,71.0,21.0,30.27,SSW,202,2.0,8.0,14,0.00,,,0.00,Rainwise IP-100,2014-01-14 18:48:00,
2014-01-14 10:53:00,72.0,21.0,30.27,WSW,247,4.0,8.0,14,0.00,,,0.00,Rainwise IP-100,2014-01-14 18:53:00,
2014-01-14 10:58:00,72.0,18.0,30.27,SSW,202,2.0,8.0,13,0.00,,,0.00,Rainwise IP-100,2014-01-14 18:58:00,
2014-01-14 11:03:00,72.0,18.0,30.27,SSW,202,5.0,9.0,13,0.00,,,0.00,Rainwise IP-100,2014-01-14 19:03:00,
2014-01-14 11:08:00,72.0,18.0,30.27,WSW,247,9.0,11.0,13,0.00,,,0.00,Rainwise IP-100,2014-01-14 19:08:00,
2014-01-14 11:13:00,72.0,18.0,30.26,SSW,202,7.0,11.0,13,0.00,,,0.00,Rainwise IP-100,2014-01-14 19:13:00,
2014-01-14 11:18:00,72.0,18.0,30.26,WSW,247,7.0,12.0,13,0.00,,,0.00,Rainwise IP-100,2014-01-14 19:18:00,
2014-01-14 11:23:00,72.0,18.0,30.26,SW,225,6.0,12.0,13,0.00,,,0.00,Rainwise IP-100,2014-01-14 19:23:00,
2014-01-14 11:28:00,72.0,18.0,30.26,SW,225,8.0,13.0,13,0.00,,,0.00,Rainwise IP-100,2014-01-14 19:28:00,
2014-01-14 11:33:00,72.0,16.0,30.25,SW,225,6.0,12.0,12,0.00,,,0.00,Rainwise IP-100,2014-01-14 19:33:00,
2014-01-14 11:38:00,73.0,18.0,30.25,SSW,202,5.0,10.0,12,0.00,,,0.00,Rainwise IP-100,2014-01-14 19:38:00,
2014-01-14 11:43:00,73.0,18.0,30.25,WSW,247,5.0,14.0,12,0.00,,,0.00,Rainwise IP-100,2014-01-14 19:43:00,
2014-01-14 11:48:00,73.0,21.0,30.25,SW,225,6.0,14.0,13,0.00,,,0.00,Rainwise IP-100,2014-01-14 19:48:00,
2014-01-14 11:53:00,73.0,21.0,30.25,West,270,8.0,11.0,13,0.00,,,0.00,Rainwise IP-100,2014-01-14 19:53:00,
2014-01-14 11:58:00,73.0,18.0,30.24,SSW,202,4.0,14.0,12,0.00,,,0.00,Rainwise IP-100,2014-01-14 19:58:00,
2014-01-14 12:03:00,73.0,18.0,30.24,SW,225,9.0,10.0,12,0.00,,,0.00,Rainwise IP-100,2014-01-14 20:03:00,
2014-01-14 12:08:00,73.0,18.0,30.24,WSW,247,3.0,10.0,12,0.00,,,0.00,Rainwise IP-100,2014-01-14 20:08:00,
2014-01-14 12:13:00,73.0,18.0,30.23,SW,225,6.0,8.0,12,0.00,,,0.00,Rainwise IP-100,2014-01-14 20:13:00,
2014-01-14 12:18:00,73.0,18.0,30.23,WSW,247,2.0,6.0,12,0.00,,,0.00,Rainwise IP-100,2014-01-14 20:18:00,
2014-01-14 12:23:00,73.0,18.0,30.23,WSW,247,2.0,8.0,12,0.00,,,0.00,Rainwise IP-100,2014-01-14 20:23:00,
2014-01-14 12:28:00,74.0,18.0,30.23,ESE,112,5.0,7.0,12,0.00,,,0.00,Rainwise IP-100,2014-01-14 20:28:00,
2014-01-14 12:33:00,74.0,18.0,30.22,NNW,337,0.0,8.0,12,0.00,,,0.00,Rainwise IP-100,2014-01-14 20:33:00,
2014-01-14 12:38:00,74.0,18.0,30.22,SSW,202,2.0,5.0,12,0.00,,,0.00,Rainwise IP-100,2014-01-14 20:38:00,
2014-01-14 12:43:00,74.0,16.0,30.22,WSW,247,5.0,9.0,11,0.00,,,0.00,Rainwise IP-100,2014-01-14 20:43:00,
2014-01-14 12:48:00,74.0,16.0,30.22,WSW,247,5.0,9.0,11,0.00,,,0.00,Rainwise IP-100,2014-01-14 20:48:00,
2014-01-14 12:53:00,74.0,16.0,30.22,SSE,157,0.0,9.0,11,0.00,,,0.00,Rainwise IP-100,2014-01-14 20:53:00,
2014-01-14 12:58:00,74.0,16.0,30.21,ESE,112,1.0,5.0,11,0.00,,,0.00,Rainwise IP-100,2014-01-14 20:58:00,
2014-01-14 13:03:00,74.0,16.0,30.22,SSW,202,1.0,10.0,11,0.00,,,0.00,Rainwise IP-100,2014-01-14 21:03:00,
2014-01-14 13:08:00,74.0,16.0,30.21,WSW,247,2.0,8.0,11,0.00,,,0.00,Rainwise IP-100,2014-01-14 21:08:00,
2014-01-14 13:13:00,74.0,16.0,30.21,SSW,202,2.0,6.0,11,0.00,,,0.00,Rainwise IP-100,2014-01-14 21:13:00,
2014-01-14 13:18:00,75.0,18.0,30.21,SSE,157,2.0,8.0,11,0.00,,,0.00,Rainwise IP-100,2014-01-14 21:18:00,
2014-01-14 13:23:00,74.0,16.0,30.21,ESE,112,3.0,11.0,11,0.00,,,0.00,Rainwise IP-100,2014-01-14 21:23:00,
2014-01-14 13:28:00,74.0,16.0,30.21,SW,225,3.0,7.0,11,0.00,,,0.00,Rainwise IP-100,2014-01-14 21:28:00,
2014-01-14 13:33:00,74.0,16.0,30.21,SSE,157,4.0,9.0,11,0.00,,,0.00,Rainwise IP-100,2014-01-14 21:33:00,
2014-01-14 13:38:00,74.0,16.0,30.21,SSE,157,2.0,9.0,11,0.00,,,0.00,Rainwise IP-100,2014-01-14 21:38:00,
2014-01-14 13:43:00,74.0,16.0,30.21,SSW,202,3.0,5.0,10,0.00,,,0.00,Rainwise IP-100,2014-01-14 21:43:00,
2014-01-14 13:48:00,74.0,16.0,30.20,SSE,157,1.0,5.0,10,0.00,,,0.00,Rainwise IP-100,2014-01-14 21:48:00,
2014-01-14 13:53:00,74.0,16.0,30.20,SE,135,2.0,9.0,10,0.00,,,0.00,Rainwise IP-100,2014-01-14 21:53:00,
2014-01-14 13:58:00,75.0,16.0,30.20,ESE,112,0.0,7.0,10,0.00,,,0.00,Rainwise IP-100,2014-01-14 21:58:00,
2014-01-14 14:03:00,75.0,16.0,30.20,SE,135,6.0,10.0,10,0.00,,,0.00,Rainwise IP-100,2014-01-14 22:03:00,
2014-01-14 14:08:00,75.0,16.0,30.20,ENE,67,2.0,7.0,10,0.00,,,0.00,Rainwise IP-100,2014-01-14 22:08:00,
2014-01-14 14:13:00,75.0,16.0,30.20,SSE,157,1.0,8.0,10,0.00,,,0.00,Rainwise IP-100,2014-01-14 22:13:00,
2014-01-14 14:18:00,75.0,16.0,30.20,WSW,247,1.0,4.0,10,0.00,,,0.00,Rainwise IP-100,2014-01-14 22:18:00,
2014-01-14 14:23:00,75.0,16.0,30.20,ENE,67,3.0,7.0,10,0.00,,,0.00,Rainwise IP-100,2014-01-14 22:23:00,
2014-01-14 14:28:00,75.0,16.0,30.20,East,90,2.0,6.0,10,0.00,,,0.00,Rainwise IP-100,2014-01-14 22:28:00,
2014-01-14 14:33:00,75.0,14.0,30.20,ESE,112,0.0,4.0,9,0.00,,,0.00,Rainwise IP-100,2014-01-14 22:33:00,
2014-01-14 14:38:00,75.0,14.0,30.20,East,90,2.0,5.0,9,0.00,,,0.00,Rainwise IP-100,2014-01-14 22:38:00,
2014-01-14 14:43:00,75.0,14.0,30.20,WSW,247,1.0,3.0,9,0.00,,,0.00,Rainwise IP-100,2014-01-14 22:43:00,
2014-01-14 14:48:00,75.0,16.0,30.20,WSW,247,5.0,8.0,10,0.00,,,0.00,Rainwise IP-100,2014-01-14 22:48:00,
2014-01-14 14:53:00,75.0,14.0,30.20,WSW,247,3.0,8.0,9,0.00,,,0.00,Rainwise IP-100,2014-01-14 22:53:00,
2014-01-14 14:58:00,76.0,14.0,30.19,SSW,202,4.0,7.0,9,0.00,,,0.00,Rainwise IP-100,2014-01-14 22:58:00,
2014-01-14 15:03:00,76.0,14.0,30.20,SSW,202,2.0,12.0,9,0.00,,,0.00,Rainwise IP-100,2014-01-14 23:03:00,
2014-01-14 15:08:00,75.0,14.0,30.20,ESE,112,4.0,4.0,9,0.00,,,0.00,Rainwise IP-100,2014-01-14 23:08:00,
2014-01-14 15:13:00,75.0,16.0,30.20,SW,225,6.0,8.0,10,0.00,,,0.00,Rainwise IP-100,2014-01-14 23:13:00,
2014-01-14 15:18:00,75.0,16.0,30.19,WSW,247,8.0,10.0,10,0.00,,,0.00,Rainwise IP-100,2014-01-14 23:18:00,
2014-01-14 15:23:00,75.0,18.0,30.19,WSW,247,4.0,11.0,11,0.00,,,0.00,Rainwise IP-100,2014-01-14 23:23:00,
2014-01-14 15:28:00,75.0,18.0,30.19,SW,225,3.0,8.0,11,0.00,,,0.00,Rainwise IP-100,2014-01-14 23:28:00,
2014-01-14 15:33:00,75.0,18.0,30.20,SW,225,2.0,10.0,11,0.00,,,0.00,Rainwise IP-100,2014-01-14 23:33:00,
2014-01-14 15:38:00,75.0,18.0,30.20,SW,225,5.0,8.0,11,0.00,,,0.00,Rainwise IP-100,2014-01-14 23:38:00,
2014-01-14 15:43:00,75.0,18.0,30.19,SW,225,3.0,9.0,11,0.00,,,0.00,Rainwise IP-100,2014-01-14 23:43:00,
2014-01-14 15:48:00,75.0,18.0,30.19,SSW,202,6.0,9.0,11,0.00,,,0.00,Rainwise IP-100,2014-01-14 23:48:00,
2014-01-14 15:53:00,74.0,16.0,30.20,SSW,202,0.0,8.0,11,0.00,,,0.00,Rainwise IP-100,2014-01-14 23:53:00,
2014-01-14 15:58:00,74.0,16.0,30.20,SSW,202,4.0,10.0,11,0.00,,,0.00,Rainwise IP-100,2014-01-14 23:58:00,
2014-01-14 16:03:00,74.0,16.0,30.20,SSW,202,0.0,8.0,11,0.00,,,0.00,Rainwise IP-100,2014-01-15 00:03:00,
2014-01-14 16:08:00,74.0,16.0,30.20,SW,225,1.0,5.0,11,0.00,,,0.00,Rainwise IP-100,2014-01-15 00:08:00,
2014-01-14 16:13:00,74.0,16.0,30.19,SSW,202,2.0,8.0,11,0.00,,,0.00,Rainwise IP-100,2014-01-15 00:13:00,
2014-01-14 16:18:00,74.0,16.0,30.19,SSW,202,2.0,8.0,11,0.00,,,0.00,Rainwise IP-100,2014-01-15 00:18:00,
2014-01-14 16:23:00,74.0,16.0,30.20,SSW,202,3.0,6.0,10,0.00,,,0.00,Rainwise IP-100,2014-01-15 00:23:00,
2014-01-14 16:28:00,74.0,16.0,30.20,SSW,202,0.0,7.0,10,0.00,,,0.00,Rainwise IP-100,2014-01-15 00:28:00,
2014-01-14 16:33:00,74.0,16.0,30.20,SW,225,4.0,4.0,10,0.00,,,0.00,Rainwise IP-100,2014-01-15 00:33:00,
2014-01-14 16:38:00,73.0,14.0,30.20,SW,225,4.0,7.0,10,0.00,,,0.00,Rainwise IP-100,2014-01-15 00:38:00,
2014-01-14 16:43:00,72.0,14.0,30.20,SW,225,6.0,9.0,10,0.00,,,0.00,Rainwise IP-100,2014-01-15 00:43:00,
2014-01-14 16:48:00,71.0,14.0,30.19,SW,225,3.0,8.0,10,0.00,,,0.00,Rainwise IP-100,2014-01-15 00:48:00,
2014-01-14 16:53:00,71.0,14.0,30.20,SSW,202,3.0,6.0,11,0.00,,,0.00,Rainwise IP-100,2014-01-15 00:53:00,
2014-01-14 16:58:00,70.0,14.0,30.20,SW,225,4.0,7.0,11,0.00,,,0.00,Rainwise IP-100,2014-01-15 00:58:00,
2014-01-14 17:03:00,69.0,16.0,30.20,SSW,202,5.0,8.0,12,0.00,,,0.00,Rainwise IP-100,2014-01-15 01:03:00,
2014-01-14 17:08:00,69.0,16.0,30.20,WSW,247,4.0,11.0,12,0.00,,,0.00,Rainwise IP-100,2014-01-15 01:08:00,
2014-01-14 17:13:00,68.0,14.0,30.20,SW,225,3.0,8.0,12,0.00,,,0.00,Rainwise IP-100,2014-01-15 01:13:00,
2014-01-14 17:18:00,68.0,14.0,30.20,SSW,202,4.0,9.0,12,0.00,,,0.00,Rainwise IP-100,2014-01-15 01:18:00,
2014-01-14 17:23:00,67.0,16.0,30.21,SSW,202,6.0,9.0,13,0.00,,,0.00,Rainwise IP-100,2014-01-15 01:23:00,
2014-01-14 17:28:00,67.0,16.0,30.20,SSW,202,4.0,6.0,13,0.00,,,0.00,Rainwise IP-100,2014-01-15 01:28:00,
2014-01-14 17:33:00,66.0,14.0,30.21,SSW,202,0.0,6.0,13,0.00,,,0.00,Rainwise IP-100,2014-01-15 01:33:00,
2014-01-14 17:38:00,66.0,14.0,30.20,SSW,202,1.0,3.0,13,0.00,,,0.00,Rainwise IP-100,2014-01-15 01:38:00,
2014-01-14 17:43:00,65.0,14.0,30.21,SSW,202,2.0,4.0,13,0.00,,,0.00,Rainwise IP-100,2014-01-15 01:43:00,
2014-01-14 17:48:00,65.0,14.0,30.21,SW,225,2.0,4.0,13,0.00,,,0.00,Rainwise IP-100,2014-01-15 01:48:00,
2014-01-14 17:53:00,65.0,14.0,30.21,SSW,202,2.0,4.0,13,0.00,,,0.00,Rainwise IP-100,2014-01-15 01:53:00,
2014-01-14 17:58:00,65.0,14.0,30.21,SSW,202,2.0,4.0,13,0.00,,,0.00,Rainwise IP-100,2014-01-15 01:58:00,
2014-01-14 18:03:00,64.0,14.0,30.21,SSW,202,1.0,5.0,13,0.00,,,0.00,Rainwise IP-100,2014-01-15 02:03:00,
2014-01-14 18:08:00,64.0,14.0,30.21,SSW,202,1.0,3.0,13,0.00,,,0.00,Rainwise IP-100,2014-01-15 02:08:00,
2014-01-14 18:13:00,64.0,14.0,30.21,SSW,202,2.0,3.0,13,0.00,,,0.00,Rainwise IP-100,2014-01-15 02:13:00,
2014-01-14 18:18:00,64.0,14.0,30.22,SSW,202,0.0,3.0,14,0.00,,,0.00,Rainwise IP-100,2014-01-15 02:18:00,
2014-01-14 18:24:00,64.0,14.0,30.22,SW,225,2.0,3.0,14,0.00,,,0.00,Rainwise IP-100,2014-01-15 02:24:00,
2014-01-14 18:29:00,64.0,14.0,30.22,SSW,202,2.0,8.0,13,0.00,,,0.00,Rainwise IP-100,2014-01-15 02:29:00,
2014-01-14 18:34:00,65.0,14.0,30.22,SW,225,5.0,8.0,13,0.00,,,0.00,Rainwise IP-100,2014-01-15 02:34:00,
2014-01-14 18:39:00,65.0,14.0,30.22,WSW,247,3.0,6.0,13,0.00,,,0.00,Rainwise IP-100,2014-01-15 02:39:00,
2014-01-14 18:44:00,65.0,14.0,30.22,SSW,202,0.0,5.0,13,0.00,,,0.00,Rainwise IP-100,2014-01-15 02:44:00,
2014-01-14 18:49:00,64.0,14.0,30.22,SW,225,6.0,9.0,13,0.00,,,0.00,Rainwise IP-100,2014-01-15 02:49:00,
2014-01-14 18:54:00,64.0,14.0,30.22,SSW,202,4.0,8.0,13,0.00,,,0.00,Rainwise IP-100,2014-01-15 02:54:00,
2014-01-14 18:59:00,64.0,14.0,30.22,SW,225,6.0,9.0,13,0.00,,,0.00,Rainwise IP-100,2014-01-15 02:59:00,
2014-01-14 19:04:00,65.0,14.0,30.22,SW,225,4.0,10.0,13,0.00,,,0.00,Rainwise IP-100,2014-01-15 03:04:00,
2014-01-14 19:09:00,65.0,14.0,30.22,SW,225,6.0,9.0,13,0.00,,,0.00,Rainwise IP-100,2014-01-15 03:09:00,
2014-01-14 19:14:00,65.0,14.0,30.22,WSW,247,0.0,8.0,13,0.00,,,0.00,Rainwise IP-100,2014-01-15 03:14:00,
2014-01-14 19:19:00,64.0,14.0,30.22,SW,225,0.0,4.0,13,0.00,,,0.00,Rainwise IP-100,2014-01-15 03:19:00,
2014-01-14 19:24:00,63.0,14.0,30.22,SSE,157,0.0,5.0,14,0.00,,,0.00,Rainwise IP-100,2014-01-15 03:24:00,
2014-01-14 19:29:00,63.0,14.0,30.23,SSE,157,0.0,3.0,14,0.00,,,0.00,Rainwise IP-100,2014-01-15 03:29:00,
2014-01-14 19:34:00,62.0,14.0,30.23,SSE,157,0.0,5.0,14,0.00,,,0.00,Rainwise IP-100,2014-01-15 03:34:00,
2014-01-14 19:39:00,62.0,14.0,30.23,SE,135,2.0,3.0,14,0.00,,,0.00,Rainwise IP-100,2014-01-15 03:39:00,
2014-01-14 19:44:00,62.0,14.0,30.23,ESE,112,4.0,4.0,14,0.00,,,0.00,Rainwise IP-100,2014-01-15 03:44:00,
2014-01-14 19:49:00,62.0,14.0,30.23,SSE,157,3.0,4.0,14,0.00,,,0.00,Rainwise IP-100,2014-01-15 03:49:00,
2014-01-14 19:54:00,62.0,14.0,30.22,SE,135,1.0,4.0,14,0.00,,,0.00,Rainwise IP-100,2014-01-15 03:54:00,
2014-01-14 19:59:00,62.0,14.0,30.23,SSE,157,0.0,3.0,14,0.00,,,0.00,Rainwise IP-100,2014-01-15 03:59:00,
2014-01-14 20:04:00,61.0,14.0,30.22,SSE,157,0.0,0.0,14,0.00,,,0.00,Rainwise IP-100,2014-01-15 04:04:00,
2014-01-14 20:09:00,61.0,14.0,30.23,SSE,157,2.0,3.0,15,0.00,,,0.00,Rainwise IP-100,2014-01-15 04:09:00,
2014-01-14 20:14:00,60.0,14.0,30.22,SSE,157,2.0,4.0,15,0.00,,,0.00,Rainwise IP-100,2014-01-15 04:14:00,
2014-01-14 20:19:00,60.0,14.0,30.23,SE,135,0.0,3.0,16,0.00,,,0.00,Rainwise IP-100,2014-01-15 04:19:00,
2014-01-14 20:24:00,60.0,14.0,30.23,SE,135,2.0,3.0,15,0.00,,,0.00,Rainwise IP-100,2014-01-15 04:24:00,
2014-01-14 20:29:00,60.0,14.0,30.23,SE,135,0.0,3.0,15,0.00,,,0.00,Rainwise IP-100,2014-01-15 04:29:00,
2014-01-14 20:34:00,60.0,14.0,30.23,SE,135,2.0,3.0,16,0.00,,,0.00,Rainwise IP-100,2014-01-15 04:34:00,
2014-01-14 20:39:00,60.0,14.0,30.24,SE,135,1.0,2.0,16,0.00,,,0.00,Rainwise IP-100,2014-01-15 04:39:00,
2014-01-14 20:44:00,60.0,14.0,30.24,SE,135,3.0,4.0,15,0.00,,,0.00,Rainwise IP-100,2014-01-15 04:44:00,
2014-01-14 20:49:00,60.0,14.0,30.24,ESE,112,2.0,4.0,15,0.00,,,0.00,Rainwise IP-100,2014-01-15 04:49:00,
2014-01-14 20:54:00,61.0,14.0,30.24,SSE,157,2.0,3.0,15,0.00,,,0.00,Rainwise IP-100,2014-01-15 04:54:00,
2014-01-14 20:59:00,61.0,14.0,30.24,SSE,157,2.0,3.0,15,0.00,,,0.00,Rainwise IP-100,2014-01-15 04:59:00,
2014-01-14 21:01:00,60.0,14.0,30.24,SSE,157,2.0,3.0,15,0.00,,,0.00,Rainwise IP-100,2014-01-15 05:01:00,
2014-01-14 21:02:00,60.0,14.0,30.24,SSE,157,2.0,3.0,15,0.00,,,0.00,Rainwise IP-100,2014-01-15 05:02:00,
2014-01-14 21:07:00,60.0,14.0,30.24,SSE,157,0.0,2.0,15,0.00,,,0.00,Rainwise IP-100,2014-01-15 05:07:00,
2014-01-14 21:12:00,60.0,11.0,30.24,SSE,157,1.0,1.0,14,0.00,,,0.00,Rainwise IP-100,2014-01-15 05:12:00,
2014-01-14 21:17:00,60.0,11.0,30.24,SE,135,3.0,5.0,14,0.00,,,0.00,Rainwise IP-100,2014-01-15 05:17:00,
2014-01-14 21:22:00,60.0,11.0,30.24,SE,135,3.0,5.0,14,0.00,,,0.00,Rainwise IP-100,2014-01-15 05:22:00,
2014-01-14 21:27:00,61.0,14.0,30.24,SSE,157,0.0,4.0,14,0.00,,,0.00,Rainwise IP-100,2014-01-15 05:27:00,
2014-01-14 21:32:00,61.0,14.0,30.24,SSE,157,0.0,2.0,14,0.00,,,0.00,Rainwise IP-100,2014-01-15 05:32:00,
2014-01-14 21:37:00,61.0,14.0,30.24,SSE,157,0.0,2.0,14,0.00,,,0.00,Rainwise IP-100,2014-01-15 05:37:00,
2014-01-14 21:42:00,61.0,14.0,30.24,SSE,157,0.0,1.0,14,0.00,,,0.00,Rainwise IP-100,2014-01-15 05:42:00,
2014-01-14 21:47:00,61.0,14.0,30.24,SSE,157,1.0,1.0,15,0.00,,,0.00,Rainwise IP-100,2014-01-15 05:47:00,
2014-01-14 21:52:00,60.0,14.0,30.24,SSW,202,2.0,3.0,15,0.00,,,0.00,Rainwise IP-100,2014-01-15 05:52:00,
2014-01-14 21:57:00,60.0,14.0,30.24,SSW,202,1.0,4.0,15,0.00,,,0.00,Rainwise IP-100,2014-01-15 05:57:00,
2014-01-14 22:02:00,60.0,14.0,30.24,SSW,202,1.0,3.0,15,0.00,,,0.00,Rainwise IP-100,2014-01-15 06:02:00,
2014-01-14 22:07:00,59.0,14.0,30.23,SSW,202,0.0,2.0,16,0.00,,,0.00,Rainwise IP-100,2014-01-15 06:07:00,
2014-01-14 22:12:00,59.0,14.0,30.24,SSE,157,1.0,3.0,16,0.00,,,0.00,Rainwise IP-100,2014-01-15 06:12:00,
2014-01-14 22:17:00,58.0,14.0,30.24,ESE,112,2.0,3.0,16,0.00,,,0.00,Rainwise IP-100,2014-01-15 06:17:00,
2014-01-14 22:22:00,58.0,14.0,30.23,SSE,157,3.0,3.0,16,0.00,,,0.00,Rainwise IP-100,2014-01-15 06:22:00,
2014-01-14 22:27:00,58.0,11.0,30.23,SSE,157,4.0,4.0,15,0.00,,,0.00,Rainwise IP-100,2014-01-15 06:27:00,
2014-01-14 22:32:00,59.0,14.0,30.23,SSE,157,4.0,6.0,15,0.00,,,0.00,Rainwise IP-100,2014-01-15 06:32:00,
2014-01-14 22:37:00,60.0,11.0,30.23,SE,135,2.0,6.0,14,0.00,,,0.00,Rainwise IP-100,2014-01-15 06:37:00,
2014-01-14 22:42:00,61.0,14.0,30.23,SE,135,0.0,4.0,14,0.00,,,0.00,Rainwise IP-100,2014-01-15 06:42:00,
2014-01-14 22:47:00,60.0,14.0,30.23,ESE,112,3.0,4.0,15,0.00,,,0.00,Rainwise IP-100,2014-01-15 06:47:00,
2014-01-14 22:52:00,60.0,14.0,30.23,SE,135,2.0,5.0,15,0.00,,,0.00,Rainwise IP-100,2014-01-15 06:52:00,
2014-01-14 22:57:00,60.0,14.0,30.23,SSE,157,4.0,6.0,15,0.00,,,0.00,Rainwise IP-100,2014-01-15 06:57:00,
2014-01-14 23:02:00,60.0,14.0,30.23,SE,135,3.0,8.0,15,0.00,,,0.00,Rainwise IP-100,2014-01-15 07:02:00,
2014-01-14 23:07:00,60.0,14.0,30.23,SE,135,3.0,6.0,15,0.00,,,0.00,Rainwise IP-100,2014-01-15 07:07:00,
2014-01-14 23:12:00,60.0,14.0,30.22,SE,135,3.0,5.0,15,0.00,,,0.00,Rainwise IP-100,2014-01-15 07:12:00,
2014-01-14 23:17:00,60.0,14.0,30.23,ESE,112,6.0,6.0,15,0.00,,,0.00,Rainwise IP-100,2014-01-15 07:17:00,
2014-01-14 23:22:00,60.0,14.0,30.23,SSE,157,4.0,7.0,15,0.00,,,0.00,Rainwise IP-100,2014-01-15 07:22:00,
2014-01-14 23:27:00,60.0,14.0,30.22,SSE,157,2.0,6.0,15,0.00,,,0.00,Rainwise IP-100,2014-01-15 07:27:00,
2014-01-14 23:32:00,60.0,14.0,30.22,SE,135,0.0,4.0,15,0.00,,,0.00,Rainwise IP-100,2014-01-15 07:32:00,
2014-01-14 23:37:00,59.0,14.0,30.22,SSE,157,3.0,3.0,16,0.00,,,0.00,Rainwise IP-100,2014-01-15 07:37:00,
2014-01-14 23:42:00,59.0,14.0,30.22,SSE,157,1.0,4.0,16,0.00,,,0.00,Rainwise IP-100,2014-01-15 07:42:00,
2014-01-14 23:47:00,58.0,14.0,30.22,SE,135,4.0,4.0,16,0.00,,,0.00,Rainwise IP-100,2014-01-15 07:47:00,
2014-01-14 23:52:00,58.0,14.0,30.22,SSE,157,0.0,4.0,17,0.00,,,0.00,Rainwise IP-100,2014-01-15 07:52:00,
2014-01-14 23:57:00,58.0,14.0,30.22,SE,135,3.0,4.0,17,0.00,,,0.00,Rainwise IP-100,2014-01-15 07:57:00,